Theta_e
312 314 315 316 315 315 313 313 314 314 314 313 313 313 313 313 313 313 313 314 314 314 313 311 310 308 308 308 308 307 307 306 309 311 313 314 314 313 312 312 310 309 307 307
312 314 315 312 312 312 313 314 314 314 313 310 313 313 313 313 313 314 314 313 313 313 311 310 308 307 306 306 306 306 305 305 306 309 311 311 311 311 310 310 308 307 305 305
315 315 312 311 313 313 313 314 315 315 313 312 312 316 314 314 312 313 311 312 311 310 310 308 307 304 303 302 302 302 303 303 303 306 308 308 304 306 307 307 306 304 304 302
313 310 310 311 312 313 314 314 312 312 312 318 311 319 318 316 314 312 312 312 311 310 308 305 303 302 300 299 299 300 300 301 301 303 304 305 304 304 303 303 303 303 302 301
313 311 310 312 313 311 314 309 310 310 313 312 315 314 319 312 314 313 313 310 310 307 304 303 302 301 299 298 297 297 298 298 299 300 301 301 302 303 303 301 302 301 300 299
312 306 309 311 309 309 308 310 310 311 312 318 317 315 317 315 313 312 309 308 305 304 303 302 301 300 299 297 297 296 296 296 296 297 299 299 300 301 301 299 300 300 298 297
314 310 308 307 310 308 309 312 322 322 321 321 313 313 315 315 311 308 308 305 303 302 302 301 300 299 298 297 297 296 296 295 295 295 296 297 298 298 299 299 299 299 298 296
320 322 311 308 313 319 312 314 320 323 323 320 310 316 316 312 308 306 305 303 302 301 301 300 299 298 297 296 295 296 295 295 295 295 294 294 295 295 296 297 297 298 297 297
321 320 308 306 307 311 312 313 313 317 318 319 317 316 316 313 308 307 304 302 299 298 298 298 298 297 296 295 294 294 293 293 294 294 294 294 294 294 294 295 294 295 295 295
314 319 316 312 306 307 310 311 314 312 317 320 315 315 316 312 310 305 302 299 298 296 296 296 296 296 295 294 294 292 293 292 291 292 293 293 293 292 292 293 293 293 293 293
312 316 318 312 313 314 311 309 309 310 313 319 320 317 312 311 305 303 299 296 295 295 295 295 294 295 294 292 293 292 291 291 290 290 291 292 292 292 292 292 292 292 292 291
315 315 318 316 314 309 310 312 311 314 316 314 315 316 306 303 300 297 295 294 294 293 293 294 294 293 293 291 291 291 290 290 289 289 289 289 289 289 289 291 291 291 291 291
315 316 318 316 314 312 316 316 315 315 314 320 321 319 306 301 299 298 296 294 293 291 290 292 294 291 290 289 289 289 289 288 288 287 288 288 288 286 286 287 288 290 290 290
310 313 316 315 315 314 317 315 311 312 315 315 316 315 312 309 303 297 294 294 293 290 290 290 292 291 290 289 288 287 287 287 286 286 287 287 287 287 285 284 285 286 288 289
310 313 311 310 311 310 311 310 308 308 308 309 308 308 307 306 301 293 291 291 292 289 289 289 290 292 289 288 287 286 286 286 285 284 286 286 286 285 284 284 284 284 284 287
305 307 306 306 306 307 307 307 306 305 304 304 303 303 302 293 292 291 289 290 292 289 289 289 289 289 290 288 286 286 285 285 285 283 283 284 284 283 282 282 283 284 284 284
303 304 304 305 304 303 304 303 301 301 301 301 301 299 293 291 291 291 290 290 291 289 288 289 289 288 289 288 286 285 284 284 284 282 282 282 282 281 281 280 282 283 283 283
299 301 302 302 301 301 300 298 298 298 299 296 294 292 293 290 290 292 290 290 291 289 289 289 288 288 288 287 285 284 284 283 283 282 281 281 281 280 279 279 281 282 281 282
297 298 299 300 300 299 298 296 296 297 297 295 293 290 289 289 291 290 291 290 290 289 289 288 288 287 286 285 284 283 282 282 282 282 281 281 280 279 278 277 278 279 279 281
293 296 296 296 296 295 294 291 292 291 294 293 290 290 289 289 289 289 290 289 289 288 288 287 286 286 285 284 283 281 281 280 280 280 280 279 279 277 276 276 276 277 278 278
290 292 295 296 296 295 293 290 291 292 293 292 290 290 290 289 290 290 289 289 288 288 287 286 285 284 283 282 281 280 280 279 279 278 278 277 277 276 275 274 274 275 275 275
290 291 291 287 291 292 290 289 290 291 291 291 290 289 289 289 289 289 289 289 289 287 285 284 283 282 281 279 278 278 278 277 276 276 275 275 274 273 273 273 272 272 273 274
290 291 291 289 291 290 290 291 291 291 291 291 290 290 289 289 288 288 288 288 285 284 282 281 279 278 277 276 275 275 275 274 272 272 271 271 271 270 270 270 270 271 271 272
290 290 290 290 290 290 290 290 290 290 290 290 289 289 288 288 287 286 284 283 281 280 278 277 275 274 273 272 271 271 270 269 268 267 267 267 267 267 267 268 268 269 270 271
290 289 289 290 290 290 290 290 290 290 290 289 287 285 284 283 283 281 280 278 277 275 274 273 271 270 270 269 268 267 266 265 264 264 264 264 265 265 265 265 266 267 268 269
291 290 290 290 290 290 290 290 290 289 288 285 282 281 280 278 278 276 276 274 273 272 270 269 268 267 266 265 265 264 264 263 263 263 263 264 264 264 264 264 264 265 266 268
Wind_Speed
4 7 12 17 18 19 12 15 19 23 22 17 20 20 20 22 23 25 23 18 14 14 13 14 14 15 14 12 11 14 17 18 21 24 26 28 30 28 30 32 32 34 37 42
4 11 19 4 6 11 14 15 21 18 17 4 16 20 24 19 17 19 16 15 13 12 12 17 24 22 22 22 19 12 12 14 19 21 24 24 24 26 27 26 27 31 32 39
17 10 4 8 12 14 13 15 17 18 15 14 13 14 6 10 7 8 6 8 4 10 16 18 22 29 30 30 26 21 13 10 13 16 15 16 12 16 20 23 23 25 28 32
8 3 6 5 12 12 14 11 16 12 7 11 9 14 9 9 13 4 8 9 12 16 17 18 20 26 28 27 24 21 18 9 6 11 12 17 16 17 16 19 22 23 27 29
3 5 5 6 8 8 6 2 2 2 7 10 4 7 4 4 5 3 1 11 16 16 17 18 20 24 26 29 31 33 24 17 8 5 10 12 17 15 12 12 16 21 23 29
12 2 4 4 2 4 2 2 1 1 3 9 8 7 6 0 1 2 14 13 14 14 15 17 24 26 34 38 35 30 28 24 17 10 6 9 14 14 13 11 12 15 18 22
4 5 2 3 6 3 4 4 8 8 7 14 3 6 12 11 6 7 10 12 13 14 15 18 21 28 32 33 30 30 32 30 23 16 10 10 11 14 16 15 14 15 16 20
10 17 7 7 9 10 8 7 6 10 16 19 5 12 12 5 12 12 13 13 12 15 16 17 18 22 23 26 29 29 28 27 28 27 21 15 11 12 14 15 16 16 17 19
12 19 2 3 0 3 5 7 4 11 16 12 18 25 19 8 9 10 10 11 14 13 13 15 19 21 22 23 26 26 28 27 27 28 27 23 17 13 13 14 16 15 15 16
4 13 3 1 1 6 8 7 8 6 9 21 16 22 15 9 8 6 9 10 10 10 12 12 14 17 19 21 20 23 23 26 25 23 23 23 24 18 13 12 15 19 19 21
6 7 20 2 8 17 9 7 8 7 8 10 14 13 11 5 7 7 8 9 10 11 11 11 14 15 16 17 20 21 21 22 25 25 25 24 24 25 22 17 14 14 16 18
13 6 10 26 18 4 6 16 17 11 10 11 14 18 5 10 7 4 4 3 5 8 10 9 12 15 15 17 18 18 20 21 22 22 22 23 24 24 26 26 22 18 17 17
1 4 7 9 8 2 5 6 14 8 3 12 10 3 5 10 6 4 3 1 2 5 7 8 10 14 14 16 16 18 19 19 21 21 20 21 23 30 29 29 29 26 19 18
2 5 13 16 16 7 6 4 6 8 7 10 11 16 15 12 1 1 1 3 0 3 5 8 9 13 15 16 18 18 19 19 19 20 20 20 20 21 26 31 34 33 27 20
3 7 13 17 19 19 19 20 23 22 21 14 22 21 24 20 9 2 2 3 2 5 7 7 7 7 11 14 18 18 17 18 19 19 19 20 21 21 22 23 28 31 33 30
6 12 16 22 22 19 18 18 21 21 22 24 25 27 12 2 1 2 4 6 4 8 10 10 10 11 11 12 13 15 18 21 22 25 22 20 19 23 28 31 31 30 30 32
9 9 12 21 16 18 16 20 21 24 24 24 23 12 5 1 4 6 6 7 7 7 10 12 13 15 16 15 15 17 17 19 20 25 28 27 25 25 26 30 28 26 27 26
14 14 10 15 12 23 17 10 12 18 13 1 5 4 3 4 8 8 9 10 11 8 10 12 16 19 21 20 20 20 19 21 20 23 22 22 23 25 26 27 27 26 27 27
18 15 9 13 17 21 25 20 16 12 16 7 9 4 2 5 6 12 11 14 14 12 12 15 16 20 23 23 22 21 22 21 22 23 23 23 22 26 28 29 28 28 29 31
6 14 10 5 9 14 7 2 3 1 7 7 2 3 7 4 10 12 14 9 12 17 15 17 20 22 22 27 27 24 25 25 26 26 26 26 25 27 29 30 32 33 30 31
2 2 11 12 13 10 4 4 3 5 3 6 5 11 11 11 12 15 15 13 16 15 16 16 20 22 24 27 23 25 27 27 28 28 29 29 29 30 30 31 33 33 34 35
5 5 4 1 3 10 5 5 5 1 9 9 12 14 13 13 14 14 13 14 12 13 17 21 22 24 28 28 25 27 30 31 30 29 29 32 33 32 33 33 34 34 33 33
6 9 5 8 7 2 7 7 12 13 13 15 13 14 11 13 14 13 11 8 10 16 18 20 19 24 30 27 24 27 32 32 34 35 36 36 35 35 34 33 33 30 31 30
13 14 11 10 19 19 20 19 19 18 17 15 13 12 11 11 9 8 9 9 10 15 16 18 20 22 29 30 30 29 34 33 34 36 38 36 35 35 34 32 31 31 30 29
12 4 9 14 20 19 21 19 21 20 16 13 4 3 4 5 7 8 9 10 13 16 18 17 19 24 29 31 31 31 33 33 34 34 35 34 33 33 33 31 31 31 32 32
15 20 11 15 19 15 21 18 16 12 12 3 3 3 1 3 7 8 8 12 15 17 20 21 23 25 28 30 32 33 32 32 33 33 32 31 32 32 32 32 33 34 39 41
Wind_Direction
152 203 219 242 231 249 285 279 283 279 286 298 290 295 293 282 282 282 283 296 299 302 325 334 350 341 324 315 297 269 250 238 214 214 215 216 220 223 223 220 217 213 211 210
162 229 232 282 262 251 260 270 271 280 282 290 287 297 292 292 269 271 287 299 305 328 13 19 18 14 4 355 343 313 264 245 230 220 217 215 223 228 230 229 226 218 213 212
241 264 239 214 254 254 249 256 273 273 314 280 300 283 252 281 275 297 284 281 342 36 22 16 18 18 14 8 355 343 317 259 231 230 227 221 234 222 218 224 231 229 222 217
250 315 221 198 250 248 274 268 264 281 304 299 18 304 298 273 278 64 38 74 55 31 31 33 25 23 19 10 7 8 5 333 257 219 228 227 237 239 236 228 222 222 223 224
257 178 166 203 229 187 265 35 321 312 288 302 303 269 335 203 243 123 67 54 41 37 31 31 29 30 27 24 22 24 21 17 352 272 233 239 240 250 261 253 233 223 221 220
265 352 227 227 162 204 138 291 210 182 288 274 315 220 339 183 182 52 83 58 50 39 37 31 28 28 31 33 30 26 28 25 10 343 294 265 265 257 256 255 242 232 225 225
266 218 229 215 230 154 189 274 288 269 249 269 89 239 254 285 39 48 71 76 53 48 39 35 32 26 21 24 29 37 31 25 19 6 345 313 288 278 270 260 248 233 226 224
283 284 200 171 231 270 191 206 242 282 277 283 127 260 262 114 88 73 61 55 45 39 33 34 32 31 29 23 21 24 31 26 22 22 8 342 315 293 282 276 261 249 240 236
300 274 92 214 158 231 152 222 266 265 267 279 267 264 268 177 85 75 61 50 40 35 33 29 24 26 19 24 22 22 21 24 20 20 16 12 348 325 299 291 281 265 262 259
302 291 269 288 287 236 252 313 256 219 257 252 247 260 263 182 128 88 55 44 35 32 33 30 24 22 17 18 18 20 19 16 17 16 15 13 13 3 334 313 298 294 283 272
305 247 277 208 233 271 253 242 232 273 254 260 265 259 313 6 84 80 50 31 29 21 17 10 13 19 18 15 12 12 15 11 12 12 5 9 10 7 11 358 334 312 297 279
274 276 254 269 292 277 259 259 242 242 242 232 252 252 85 106 105 132 132 77 46 31 7 7 14 6 9 7 7 6 5 8 6 3 3 5 4 3 3 1 358 349 321 308
59 231 293 278 252 162 218 285 265 290 296 246 255 261 157 116 128 161 171 164 67 35 14 360 4 4 1 0 1 359 358 358 359 1 360 357 359 1 359 358 349 349 342 323
53 254 249 262 278 326 268 239 286 283 275 303 266 274 242 236 13 331 123 147 165 44 23 12 355 351 349 350 349 349 348 350 352 354 353 354 355 353 351 353 353 349 345 331
219 264 274 276 278 275 270 271 274 274 274 265 281 281 282 287 301 245 334 343 314 358 3 353 338 321 330 333 333 333 334 337 341 344 343 343 340 344 344 340 342 345 348 344
265 270 277 272 275 266 269 263 265 270 272 268 266 267 289 32 64 285 333 303 288 343 342 339 330 319 302 310 311 314 323 329 330 329 327 327 328 333 339 339 337 338 337 338
270 272 268 269 277 290 267 249 259 266 265 268 273 295 80 53 290 284 280 284 265 319 330 328 321 316 309 305 313 309 306 307 307 312 316 321 324 325 327 329 326 325 323 320
249 255 258 271 274 260 272 290 270 271 286 17 121 141 181 270 299 278 268 280 260 281 312 322 318 314 313 305 305 306 299 299 299 297 304 309 312 314 317 317 315 310 313 309
233 255 262 257 259 278 290 286 264 245 272 176 152 170 258 288 288 284 265 274 258 266 296 309 311 309 307 305 308 302 298 296 295 292 298 301 302 305 309 308 307 303 305 304
229 233 244 237 261 268 300 92 68 96 272 183 191 280 291 280 286 299 315 279 264 261 284 307 315 313 307 310 314 308 302 300 297 298 294 292 292 292 296 299 299 299 296 292
263 212 235 245 258 267 237 138 146 229 306 189 232 273 276 263 269 292 296 278 271 274 288 300 306 303 303 308 313 303 301 297 301 298 292 290 289 287 288 290 290 291 292 292
254 254 213 197 250 269 131 120 213 254 295 287 281 281 281 275 279 278 277 283 291 294 307 312 311 306 306 310 314 305 299 305 305 300 293 290 288 287 287 286 284 285 284 284
254 221 258 212 251 276 194 252 262 281 276 286 287 289 275 273 270 283 296 300 301 307 311 312 308 306 304 310 311 304 301 308 305 300 295 294 293 290 287 284 282 281 280 276
258 255 247 268 257 259 264 266 275 282 277 283 286 278 281 272 288 293 301 308 311 314 314 318 317 308 303 309 308 304 304 305 302 298 297 298 296 294 290 284 280 278 274 274
245 219 236 253 262 275 267 265 265 271 281 275 238 233 257 283 293 303 306 309 309 311 313 313 307 300 299 305 304 303 302 304 300 299 298 297 295 292 289 283 278 275 271 269
238 239 242 253 264 257 268 272 279 269 267 200 210 212 183 328 307 315 305 309 312 313 314 309 304 301 300 301 302 303 303 301 299 296 295 293 292 291 288 286 284 277 276 275